[[{"header":{"parameterUnit":"m.s-1","parameterCategory":1,"la1":30.2991,"la2":30.254,"lo1":-89.0895,"lo2":-89.0444,"dy":0.0017,"dx":0.0017,"nx":28,"ny":28,"refTime":"2024-06-11T03:00:00:Z","depth":0,"parameterNumber":2,"parameterNumberName":"U-component_of_WINDS"},"data":[0,0,0,0,0,0,0,0,0,0,0,0,0,0,0,0,0,0,0,0,0,0,0,0,0,0,0,0,0,0,0,0,0,0,0,0,0,0,0,0,0,0,0,0,0,0,0,0,0,0,0,0,0,0,0,0,0,0,-3.1101,-3.1102,0,-3.1166,-3.1166,-3.1167,-3.1082,-3.1079,-3.1076,-3.1073,-3.1139,-3.1144,-3.1148,0,0,0,0,0,0,0,0,0,0,0,0,0,-3.0905,-3.0909,-3.1101,-3.1102,-3.1103,-3.1165,-3.1166,-3.1167,-3.1082,-3.1079,-3.1075,-3.1071,-3.1138,-3.1143,-3.1149,0,0,0,0,0,0,0,0,0,0,0,0,0,-3.0982,-3.091,-3.1101,-3.1068,-3.1066,-3.1165,-3.1166,-3.1167,-3.1083,-3.1079,-3.1074,-3.107,-3.1136,-3.1143,-3.115,-3.1285,0,0,-3.1171,-3.1174,0,0,0,0,0,0,0,0,-3.0977,-3.0989,-3.1072,-3.1071,-3.1068,-3.1111,-3.1121,-3.1207,-3.1084,-3.1077,-3.1073,-3.1067,-3.1134,-3.114,-3.1163,-3.1288,-3.1291,-3.1171,-3.1176,-3.1179,-3.1181,0,0,0,0,0,0,0,-3.0972,-3.0986,-3.1127,-3.1074,-3.1071,-3.105,-3.1056,-3.1137,-3.113,-3.1077,-3.1071,-3.108,-3.1132,-3.1156,-3.1164,-3.1292,-3.1171,-3.1177,-3.1182,-3.1184,-3.153,-3.1535,0,0,0,0,0,0,-3.0971,-3.0982,-3.1125,-3.1129,-3.101,-3.1057,-3.1064,-3.1102,-3.1129,-3.1129,-3.1083,-3.1075,-3.1147,-3.1156,-3.1166,-3.1326,-3.1179,-3.1185,-3.1189,-3.1525,-3.1531,-3.1537,0,0,0,0,0,0,-3.0967,-3.0984,-3.1122,-3.1054,-3.107,-3.1065,-3.1109,-3.1106,-3.113,-3.1134,-3.1132,-3.111,-3.1143,-3.1156,-3.1256,-3.1327,-3.1188,-3.1195,-3.1519,-3.1527,-3.1534,-3.1648,0,0,0,0,0,0,-3.0962,-3.0983,-3.1035,-3.1055,-3.1074,-3.1212,-3.1113,-3.111,-3.1142,-3.1132,-3.1158,-3.1158,-3.1141,-3.1246,-3.1263,-3.1334,-3.12,-3.1513,-3.1523,-3.1532,-3.1638,-3.1659,-3.1676,0,0,0,0,0,-3.0955,-3.1065,-3.1038,-3.1056,-3.1138,-3.1216,-3.1226,-3.1204,-3.1148,-3.12,-3.1202,-3.1157,-3.1316,-3.1257,-3.1275,-3.135,-3.1509,-3.152,-3.1531,-3.1629,-3.1655,-3.1676,0,0,0,0,0,0,-3.1054,-3.1067,-3.1038,-3.1158,-3.1186,-3.1201,-3.1266,-3.1231,-3.1276,-3.1265,-3.1235,-3.1241,-3.1348,-3.1358,-3.1292,-3.1482,-3.1403,-3.1419,-3.1472,-3.1496,-3.1514,-3.1511,-3.1206,0,0,0,0,0,-3.1089,-3.1152,-3.116,-3.1265,-3.128,-3.1271,-3.1304,-3.1284,-3.1312,-3.1324,-3.1334,-3.1364,-3.142,-3.1458,-3.151,-3.1638,-3.1643,-3.1698,-3.1717,-3.1733,-3.1748,-3.1816,-3.1841,-3.1574,-3.1574,-3.1574,0,0,-3.1164,-3.1179,-3.122,-3.1285,-3.1305,-3.137,-3.1282,-3.1355,-3.1403,-3.1335,-3.1431,-3.1438,-3.1469,-3.1584,-3.1635,-3.1596,-3.1822,-3.1747,-3.176,-3.1766,-3.1831,-3.1856,-3.1878,-3.1582,-3.158,-3.1579,0,0,-3.1334,-3.1351,-3.144,-3.1462,-3.1493,-3.1485,-3.1507,-3.1527,-3.153,-3.1624,-3.1575,-3.1631,-3.1729,-3.1753,-3.1778,-3.1955,-3.1916,-3.1972,-3.2073,-3.2141,-3.2162,-3.218,-3.2244,-3.2268,-3.1986,-3.1986,-3.1987,0,-3.1423,-3.1519,-3.1491,-3.1567,-3.1597,-3.1538,-3.1628,-3.165,-3.1697,-3.1719,-3.1674,-3.1795,-3.1811,-3.1931,-3.1974,-3.1996,-3.2019,-3.1971,-3.2161,-3.2179,-3.2196,-3.2257,-3.2281,-3.1993,-3.1993,-3.1992,-3.1991,0,-3.1628,-3.1695,-3.1763,-3.181,-3.1847,-3.193,-3.1914,-3.1955,-3.193,-3.1928,-3.2025,-3.2042,-3.2096,-3.2123,-3.21,-3.2239,-3.2214,-3.2166,-3.2086,-3.2229,-3.2286,-3.2309,-3.2003,-3.2001,-3.1999,-3.1997,0,0,-3.1864,-3.1892,-3.1918,-3.1938,-3.1967,-3.2018,-3.2098,-3.2151,-3.2187,-3.222,-3.2287,-3.2369,-3.2324,-3.2353,-3.2332,-3.2391,-3.2531,-3.2335,-3.2335,-3.2372,-3.2686,-3.2724,-3.2751,-3.2503,-3.2508,-3.2511,-3.2684,0,-3.2035,-3.2173,-3.2149,-3.2283,-3.2345,-3.2289,-3.2358,-3.2383,-3.2382,-3.2434,-3.2433,-3.2493,-3.2428,-3.2445,-3.25,-3.2502,-3.2594,-3.2489,-3.2566,-3.2569,-3.2562,-3.2781,-3.2821,-3.2983,-3.2705,-3.2709,-3.2712,0,-3.2253,-3.2294,-3.2435,-3.2453,-3.2478,-3.2541,-3.2587,-3.2638,-3.2664,-3.2659,-3.2691,-3.2658,-3.2737,-3.2655,-3.2764,-3.2693,-3.2723,-3.2728,-3.2734,-3.2742,-3.2651,-3.2796,-3.3034,-3.306,-3.2746,-3.2744,-3.2741,0,-3.2414,-3.2504,-3.2599,-3.2618,-3.2641,-3.2687,-3.2699,-3.2721,-3.2754,-3.2794,-3.2815,-3.2863,-3.2891,-3.2929,-3.2911,-3.2852,-3.3023,-3.2939,-3.3022,-3.3023,-3.3063,-3.3061,-3.3311,-3.3079,-3.3078,-3.3078,-3.3077,0,-3.2608,-3.2697,-3.2672,-3.2731,-3.2828,-3.2799,-3.2896,-3.2901,-3.2921,-3.298,-3.2933,-3.2989,-3.296,-3.3014,-3.3,-3.3093,-3.3105,-3.3103,-3.3099,-3.3109,-3.311,-3.313,-3.3119,-3.3084,-3.3083,-3.3082,-3.308,0,-3.2805,-3.2792,-3.2892,-3.2906,-3.2911,-3.2982,-3.2993,-3.3049,-3.3043,-3.3118,-3.3134,-3.3126,-3.3187,-3.3171,-3.3238,-3.3228,-3.3346,-3.3326,-3.3337,-3.3333,-3.3417,-3.341,-3.3691,-3.3726,-3.3469,-3.3472,-3.3474,0,-3.2931,-3.2998,-3.3018,-3.3054,-3.3069,-3.3128,-3.3161,-3.3134,-3.317,-3.3205,-3.3256,-3.3312,-3.3357,-3.3457,-3.3457,-3.3508,-3.349,-3.3584,-3.3497,-3.3505,-3.3493,-3.349,-3.3497,-3.3603,-3.3606,-3.3608,-3.361,0,-3.3157,-3.3146,-3.3196,-3.3244,-3.3284,-3.3321,-3.3352,-3.3384,-3.3359,-3.3402,-3.3464,-3.3498,-3.3566,-3.3623,-3.3669,-3.3681,-3.3642,-3.3637,-3.3659,-3.3671,-3.3676,-3.3676,-3.3386,-3.3631,-3.3629,-3.3628,-3.3627,-3.3626,-3.3323,-3.338,-3.3403,-3.3459,-3.348,-3.351,-3.3563,-3.3563,-3.3614,-3.3667,-3.3647,-3.3718,-3.3742,-3.38,-3.3817,-3.3872,-3.3836,-3.3868,-3.3876,-3.3885,-3.3896,-3.3665,-3.388,-3.3879,-3.3879,-3.3878,-3.3878,0,-3.3548,-3.3559,-3.3611,-3.3657,-3.3701,-3.3659,-3.3691,-3.3732,-3.3795,-3.382,-3.3864,-3.3935,-3.3989,-3.3993,-3.4044,-3.4087,-3.4071,-3.4102,-3.41,-3.4103,-3.3925,-3.3901,-3.4115,-3.4115,-3.4115,-3.4114,-3.4114,-3.4114,-3.367,-3.3764,-3.3756,-3.3859,-3.387,-3.3939,-3.3961,-3.3989,-3.4008,-3.409,-3.4135,-3.4136,-3.4153,-3.4204,-3.4253,-3.4252,-3.4274,-3.4312,-3.4305,-3.4139,-3.4116,-3.4093,-3.4071,-3.4317,-3.4317,-3.4479,-3.4481,-3.4482]},{"header":{"parameterUnit":"m.s-1","parameterCategory":1,"la1":30.2991,"la2":30.254,"lo1":-89.0895,"lo2":-89.0444,"dy":0.0017,"dx":0.0017,"nx":28,"ny":28,"refTime":"2024-06-11T03:00:00:Z","depth":0,"parameterNumber":3,"parameterNumberName":"V-component_of_WINDS"},"data":[0,0,0,0,0,0,0,0,0,0,0,0,0,0,0,0,0,0,0,0,0,0,0,0,0,0,0,0,0,0,0,0,0,0,0,0,0,0,0,0,0,0,0,0,0,0,0,0,0,0,0,0,0,0,0,0,0,0,-2.2906,-2.2906,0,-2.2921,-2.2921,-2.2921,-2.289,-2.2889,-2.2888,-2.2887,-2.2902,-2.2903,-2.2905,0,0,0,0,0,0,0,0,0,0,0,0,0,-2.2848,-2.2849,-2.2906,-2.2906,-2.2906,-2.2921,-2.2921,-2.2921,-2.289,-2.2889,-2.2888,-2.2887,-2.2902,-2.2903,-2.2905,0,0,0,0,0,0,0,0,0,0,0,0,0,-2.2869,-2.2849,-2.2906,-2.2892,-2.2891,-2.2921,-2.2921,-2.2922,-2.2891,-2.2889,-2.2888,-2.2886,-2.2901,-2.2903,-2.2905,-2.2948,0,0,-2.2911,-2.2912,0,0,0,0,0,0,0,0,-2.2868,-2.2871,-2.2894,-2.2893,-2.2892,-2.2902,-2.2906,-2.293,-2.2891,-2.2891,-2.2887,-2.2885,-2.2903,-2.2905,-2.2911,-2.2949,-2.295,-2.2912,-2.2913,-2.2914,-2.2914,0,0,0,0,0,0,0,-2.2866,-2.287,-2.2912,-2.2895,-2.2893,-2.2885,-2.2886,-2.2911,-2.2905,-2.2891,-2.2889,-2.2891,-2.2903,-2.2909,-2.2911,-2.295,-2.2911,-2.2913,-2.2914,-2.2915,-2.3022,-2.3023,0,0,0,0,0,0,-2.2867,-2.2869,-2.2911,-2.2912,-2.2876,-2.2887,-2.2889,-2.2901,-2.2905,-2.2904,-2.2892,-2.2889,-2.2907,-2.2909,-2.2912,-2.2961,-2.2914,-2.2915,-2.2917,-2.302,-2.3022,-2.3024,0,0,0,0,0,0,-2.2866,-2.2871,-2.2911,-2.289,-2.2895,-2.289,-2.2903,-2.2902,-2.2908,-2.2906,-2.2905,-2.29,-2.2906,-2.2909,-2.2939,-2.2961,-2.2916,-2.2918,-2.3018,-2.3021,-2.3023,-2.3062,0,0,0,0,0,0,-2.2864,-2.2871,-2.2888,-2.2891,-2.2896,-2.2938,-2.2905,-2.2903,-2.2912,-2.2909,-2.2913,-2.2913,-2.2905,-2.2936,-2.2941,-2.2963,-2.292,-2.3016,-2.3019,-2.3022,-2.3058,-2.3065,-2.3071,0,0,0,0,0,-2.2862,-2.2898,-2.2889,-2.2894,-2.2917,-2.294,-2.2943,-2.2933,-2.2914,-2.2931,-2.2929,-2.2913,-2.2958,-2.294,-2.2945,-2.2968,-2.3015,-2.3018,-2.3022,-2.3055,-2.3064,-2.3071,0,0,0,0,0,0,-2.2898,-2.2898,-2.2888,-2.2926,-2.2933,-2.2934,-2.2955,-2.2942,-2.2954,-2.2951,-2.2937,-2.2939,-2.2971,-2.2973,-2.2952,-2.3009,-2.2983,-2.2988,-2.3007,-2.3015,-2.3021,-2.302,-2.2921,0,0,0,0,0,-2.291,-2.2929,-2.2928,-2.2962,-2.2966,-2.296,-2.297,-2.2961,-2.2968,-2.2971,-2.2971,-2.2978,-2.2994,-2.3004,-2.3019,-2.3058,-2.3058,-2.3077,-2.3083,-2.3088,-2.3092,-2.3112,-2.312,-2.3036,-2.3036,-2.3035,0,0,-2.2936,-2.2938,-2.2951,-2.2969,-2.2974,-2.2993,-2.2963,-2.2985,-2.2998,-2.2974,-2.3002,-2.3003,-2.3009,-2.3044,-2.3059,-2.3046,-2.3116,-2.3093,-2.3097,-2.3098,-2.3117,-2.3124,-2.3132,-2.3038,-2.3038,-2.3037,0,0,-2.2992,-2.2997,-2.3024,-2.3029,-2.3036,-2.3031,-2.3038,-2.3041,-2.3041,-2.3069,-2.305,-2.3066,-2.3094,-2.3099,-2.3105,-2.3162,-2.3147,-2.3167,-2.3199,-2.3218,-2.3225,-2.3231,-2.325,-2.3257,-2.3171,-2.3171,-2.3171,0,-2.3023,-2.3052,-2.304,-2.3063,-2.3071,-2.3049,-2.3077,-2.3082,-2.3093,-2.3099,-2.3084,-2.3117,-2.312,-2.3155,-2.3169,-2.3175,-2.3181,-2.3166,-2.3225,-2.3231,-2.3236,-2.3254,-2.3261,-2.3173,-2.3173,-2.3173,-2.3173,0,-2.3089,-2.3108,-2.313,-2.3141,-2.3151,-2.3176,-2.3168,-2.318,-2.317,-2.3167,-2.3195,-2.3197,-2.3211,-2.3219,-2.321,-2.3252,-2.3244,-2.3227,-2.3201,-2.3247,-2.3263,-2.327,-2.3177,-2.3176,-2.3175,-2.3174,0,0,-2.3169,-2.3172,-2.318,-2.3184,-2.3189,-2.3204,-2.3228,-2.3241,-2.3251,-2.3259,-2.3278,-2.3301,-2.3285,-2.3292,-2.3284,-2.3301,-2.3344,-2.3282,-2.3282,-2.3292,-2.3389,-2.3401,-2.3409,-2.3334,-2.3335,-2.3336,-2.3388,0,-2.3224,-2.3264,-2.3254,-2.3293,-2.3311,-2.329,-2.331,-2.3315,-2.3312,-2.3326,-2.3323,-2.3339,-2.3318,-2.3322,-2.3338,-2.3335,-2.3363,-2.3331,-2.335,-2.3351,-2.3349,-2.3418,-2.3431,-2.3479,-2.3394,-2.3395,-2.3396,0,-2.3294,-2.3304,-2.3345,-2.3346,-2.3353,-2.3371,-2.3382,-2.3396,-2.34,-2.3397,-2.3404,-2.3392,-2.3414,-2.3388,-2.3417,-2.3396,-2.3403,-2.3403,-2.3404,-2.3405,-2.3376,-2.342,-2.3495,-2.3502,-2.3407,-2.3406,-2.3405,0,-2.3347,-2.3371,-2.3398,-2.3402,-2.3404,-2.3417,-2.3419,-2.3422,-2.343,-2.344,-2.3444,-2.3456,-2.3463,-2.3472,-2.3462,-2.3444,-2.3493,-2.3466,-2.349,-2.3491,-2.3501,-2.3501,-2.3578,-2.3507,-2.3507,-2.3507,-2.3507,0,-2.3409,-2.3435,-2.3422,-2.3439,-2.3466,-2.3454,-2.3482,-2.3481,-2.3483,-2.3499,-2.3482,-2.3497,-2.3484,-2.3498,-2.349,-2.3515,-2.3519,-2.3516,-2.3514,-2.3517,-2.3517,-2.3521,-2.3517,-2.3509,-2.3508,-2.3508,-2.3508,0,-2.3473,-2.3465,-2.3493,-2.3493,-2.3493,-2.3513,-2.3512,-2.3528,-2.3523,-2.3543,-2.3547,-2.354,-2.3555,-2.3547,-2.3562,-2.3557,-2.359,-2.3583,-2.3588,-2.3586,-2.361,-2.3608,-2.3692,-2.3702,-2.3626,-2.3626,-2.3627,0,-2.3513,-2.3532,-2.3533,-2.3542,-2.3544,-2.3559,-2.3567,-2.3555,-2.3564,-2.357,-2.3584,-2.3598,-2.3608,-2.3633,-2.3629,-2.364,-2.3633,-2.3662,-2.3635,-2.3638,-2.3633,-2.3632,-2.3633,-2.3667,-2.3668,-2.3669,-2.367,0,-2.3584,-2.3579,-2.3591,-2.3602,-2.3611,-2.3619,-2.3625,-2.3634,-2.3622,-2.3632,-2.3647,-2.3655,-2.367,-2.3684,-2.3693,-2.3694,-2.368,-2.3678,-2.3684,-2.3688,-2.369,-2.3688,-2.3602,-2.3676,-2.3676,-2.3675,-2.3675,-2.3675,-2.3637,-2.3652,-2.3655,-2.3668,-2.3671,-2.3677,-2.3691,-2.3688,-2.37,-2.3711,-2.3703,-2.3721,-2.3724,-2.3735,-2.3737,-2.375,-2.3739,-2.3748,-2.375,-2.3752,-2.3755,-2.3688,-2.3752,-2.3752,-2.3752,-2.3752,-2.3752,0,-2.3706,-2.3706,-2.3719,-2.3728,-2.3738,-2.3723,-2.3729,-2.3739,-2.3754,-2.3758,-2.3768,-2.3784,-2.3797,-2.3794,-2.3805,-2.3816,-2.3809,-2.3819,-2.3818,-2.3818,-2.3765,-2.3759,-2.3824,-2.3824,-2.3824,-2.3824,-2.3824,-2.3824,-2.3744,-2.3768,-2.3763,-2.3789,-2.3789,-2.3806,-2.381,-2.3815,-2.3818,-2.3837,-2.3847,-2.3845,-2.3845,-2.3856,-2.3866,-2.3865,-2.387,-2.3881,-2.3878,-2.3829,-2.3822,-2.3815,-2.3808,-2.3883,-2.3883,-2.3929,-2.3929,-2.393]}]]